Location: Melbourne
(37.8666°S, 145.1333°E)
Time: 05:14:20
(UTC+10:00)

HST - Visible Passes

Search period start: 31 July 2014 00:00
Search period end: 10 August 2014 00:00
Orbit: 547 x 552 km, 28.5° (Epoch: 29 July)

Date Brightness Start Highest point End Pass type
(mag) Time Alt. Az. Time Alt. Az. Time Alt. Az.
31 Jul 3.4 04:44:07 16° NE 04:44:07 16° NE 04:45:26 10° NE visible
31 Jul 2.8 06:19:57 10° NW 06:23:00 19° N 06:26:03 10° NE visible
01 Aug 3.6 04:37:41 14° NE 04:37:41 14° NE 04:38:33 10° NE visible
01 Aug 2.9 06:13:15 10° NW 06:16:04 17° NNW 06:18:51 10° NNE visible
02 Aug 3.8 04:31:15 12° NE 04:31:15 12° NE 04:31:36 10° NE visible
02 Aug 3.0 06:06:49 11° NW 06:09:06 15° NNW 06:11:31 10° NNE visible
03 Aug 3.1 06:00:24 10° NW 06:02:07 13° NNW 06:03:57 10° N visible
04 Aug 3.3 05:54:57 10° NNW 05:55:08 10° NNW 05:55:19 10° NNW visible
